This is the latest recevied weather packets stored in our database for station/object KA3RQR. If no packets are shown the sender has not sent any weather packets the latest 10 day(s).
| Time | Temp. | Humidity | Pressure | Rain* | Wind** | Luminosity | Snow |
|---|---|---|---|---|---|---|---|
| 1777924391 | 25° C | 34% | 1010.4 hPa | 0 mm | - | 571 W/m² | - |
| 1777924089 | 23.89° C | 36% | 1010.8 hPa | 0 mm | - | 608 W/m² | - |
| 1777923785 | 24.44° C | 35% | 1010.8 hPa | 0 mm | - | 605 W/m² | - |
| 1777923481 | 24.44° C | 36% | 1010.7 hPa | 0 mm | - | 592 W/m² | - |
| 1777923178 | 24.44° C | 36% | 1010.8 hPa | 0 mm | - | 586 W/m² | - |
| 1777922877 | 24.44° C | 36% | 1011 hPa | 0 mm | - | 551 W/m² | - |
| 1777922575 | 24.44° C | 40% | 1011.3 hPa | 0 mm | - | 552 W/m² | - |
| 1777922273 | 24.44° C | 35% | 1011.1 hPa | 0 mm | - | 430 W/m² | - |
| 1777921970 | 23.89° C | 35% | 1011.2 hPa | 0 mm | - | 126 W/m² | - |
| 1777921665 | 23.33° C | 37% | 1011.3 hPa | 0 mm | - | 82 W/m² | - |
| 1777921362 | 23.33° C | 38% | 1011.4 hPa | 0 mm | - | 72 W/m² | - |
| 1777921058 | 23.33° C | 35% | 1011.7 hPa | 0 mm | - | 85 W/m² | - |
| 1777920755 | 23.89° C | 37% | 1011.7 hPa | 0 mm | - | 117 W/m² | - |
| 1777920451 | 23.89° C | 36% | 1011.6 hPa | 0 mm | - | 179 W/m² | - |
| 1777920147 | 23.33° C | 41% | 1011.7 hPa | 0 mm | - | 98 W/m² | - |
| 1777919843 | 23.33° C | 38% | 1011.8 hPa | 0 mm | - | 74 W/m² | - |
| 1777919540 | 22.78° C | 36% | 1012 hPa | 0 mm | - | 104 W/m² | - |
| 1777919238 | 22.78° C | 35% | 1012.2 hPa | 0 mm | - | 88 W/m² | - |
| 1777918935 | 22.22° C | 38% | 1011.9 hPa | 0 mm | - | 123 W/m² | - |
| 1777918633 | 22.22° C | 38% | 1012.4 hPa | 0 mm | - | 98 W/m² | - |
| 1777918330 | 22.78° C | 36% | 1012.3 hPa | 0 mm | - | 73 W/m² | - |
| 1777918029 | 22.22° C | 38% | 1012.2 hPa | 0 mm | - | 66 W/m² | - |
| 1777917727 | 22.22° C | 38% | 1012.5 hPa | 0 mm | - | 63 W/m² | - |
| 1777917424 | 22.22° C | 38% | 1012.4 hPa | 0 mm | - | 60 W/m² | - |
| 1777917121 | 22.22° C | 37% | 1012.2 hPa | 0 mm | - | 60 W/m² | - |
* Rain latest hour (hover to see other rain measurements)
** Current wind speed in m/s (hover to see current wind gust speed)